Regional Weather Roundup
Issued by NWS

Home | Current Version | Previous Version | Text Only | Print | Product List | Glossary On
Versions: 1 2 3 4 5 6 7 8 9 10 11 12 13 14 15 16 17 18 19 20 21 22 23 24 25 26 27 28 29 30 31 32 33 34 35 36 37 38 39 40 41 42 43 44 45 46 47 48 49 50
000
ASUS42 KTBW 300518
RWRFL
FLORIDA REGIONAL WEATHER ROUNDUP
NATIONAL WEATHER SERVICE TAMPA BAY RUSKIN FL
100 AM EDT THU JUL 30 2015

NOTE: "FAIR" INDICATES FEW OR NO CLOUDS BELOW 12,000 FEET WITH NO
SIGNIFICANT WEATHER AND/OR OBSTRUCTIONS TO VISIBILITY.


FLZ001>010-012>015-112-114-115-300600-
PANHANDLE FLORIDA

CITY           SKY/WX    TMP DP  RH WIND       PRES   REMARKS
PENSACOLA      MOCLDY    79  75  87 NW6       29.99S
PENSACOLA NAS  MOCLDY    78  75  90 CALM      29.98F FOG
MILTON NAS     MOCLDY    77  74  90 NW6       30.00R
CRESTVIEW      MOCLDY    78  77  96 CALM      30.01R FOG
DUKE FIELD     MOCLDY    79  75  89 S1        29.98S
VALPARAISO     CLOUDY    81  76  85 W2        29.98S HAZE
MARY ESTHER    CLOUDY    81  74  80 NW7       29.98S
TRI COUNTY     FAIR      76  75  97 CALM      30.00R
PANAMA CITY    MOCLDY    78  76  93 NE3       29.99R
TYNDALL AFB    MOCLDY    79  77  94 MISG      29.98F
APALACHICOLA   MOCLDY    82  76  81 W6        29.98F

STATION/POSITION SKY/WX   TEMP    WIND        PRES    WAVE   SWELL
                          AIR SEA DIR/SP/G            HT/PER HT/PER
                          (F)     (DEG/KT/KT) (MB)    (FT/S) (FT/S)
30.1N   87.6W              85 85  300/  6/  8 1014.7R   1
29.2N   88.2W              88 88  280/ 12/ 14 1015.3F   2/ 3
28.8N   86.0W              84 87  260/ 12/ 16 1015.4F   3/ 4
PANAMA CITY BEAC           81                   N/A
CAPE SAN BLAS    NOT AVBL
TOWER C                    81     250/ 15/ 16 1014.2F
28.5N   84.5W              80 85  320/  6/ 10 1014.7R   2/ 4   2/ 5

$$
FLZ011-016>038-118-127-128-134-139-239-300600-
NORTH FLORIDA

CITY           SKY/WX    TMP DP  RH WIND       PRES   REMARKS
MARIANNA       LGT RAIN  79  77  94 W3        29.99R
TALLAHASSEE    CLOUDY    78  75  90 CALM      29.97S
PERRY          PTCLDY    76  76 100 CALM      29.97R
CROSS CITY       N/A     77  75  93 CALM      29.98R
LAKE CITY      FAIR      72  72 100 CALM      29.99S
GAINESVILLE    CLEAR     73  72  96 S3        29.99S
MAYPORT NAS    PTCLDY    78  74  87 W5        29.97S
JACKSONVILLE   PTCLDY    75  73  93 NW5       29.97F
JAX NAS        CLEAR     81  72  74 W6        29.98F
JAX CRAIG      CLEAR     78  73  84 NW9       29.97F
JAX CECIL      CLEAR     75  73  94 CALM      29.99S
FERNANDINA BEA MOCLDY    81  77  89 W7        29.96F
ST AUGUSTINE   CLEAR     75  73  93 W6        29.98S

STATION/POSITION SKY/WX   TEMP    WIND        PRES    WAVE   SWELL
                          AIR SEA DIR/SP/G            HT/PER HT/PER
                          (F)     (DEG/KT/KT) (MB)    (FT/S) (FT/S)
SHELL POINT                78     320/  3/  4   N/A
KEATON BEACH               77      80/  3/  4 1015.0R
CEDAR KEY                  82     260/  6/  8 1015.4F
FERNANDINA                 81                   N/A
30.7N   81.3W                 83                N/A     2/11
MAYPORT                    80                   N/A
31.4N   80.9W              81 83  330/  2/  4 1015.3R   2/ 7   2/ 7
ST AUGUSTINE               76 82  300/  7/  9 1015.6F

$$
FLZ040-043>046-052-053-057-058-063-144-300600-
INTERIOR CENTRAL FLORIDA

CITY           SKY/WX    TMP DP  RH WIND       PRES   REMARKS
OCALA          CLOUDY    73  72  94 CALM      29.99S VSB 1/4
THE VILLAGES     N/A     73  73 100 CALM      29.90S
LEESBURG       CLEAR     75  73  93 CALM      30.00S
SANFORD        PTCLDY    76  73  91 W6        29.98S
ORLANDO EXEC   PTCLDY    76  75  97 SW5       29.99S
ORLANDO INTL   MOCLDY    76  75  97 W3        29.99S
WINTER HAVEN   CLEAR     78  76  93 S3        30.01S
LAKELAND       PTCLDY    75  75 100 SW3       30.00F
BARTOW         FAIR      75 N/A N/A CALM      30.01S
OKEECHOBEE       N/A     73  73 100 SW5       30.01F

$$
FLZ041-047-054-059-064-141-147-300600-
EAST CENTRAL FLORIDA

CITY           SKY/WX    TMP DP  RH WIND       PRES   REMARKS
DAYTONA BEACH  MOCLDY    76  74  93 W5        29.98S
DELAND           N/A     75  73  94 CALM      29.99F
JFK SPACE CTR  CLOUDY    78  74  88 W7        29.97R
CAPE CANAVERAL CLOUDY    79  74  85 SW8       29.96S
PATRICK AFB    CLOUDY    79  75  87 SW10      29.98F
MELBOURNE      CLOUDY    77  74  90 SW7       29.99F
VERO BEACH     CLOUDY    79  74  84 SW7       30.00S
FT PIERCE      CLOUDY    77  75  93 SW3       30.00S
STUART         MOCLDY    75  72  88 SW6       30.02S

STATION/POSITION SKY/WX   TEMP    WIND        PRES    WAVE   SWELL
                          AIR SEA DIR/SP/G            HT/PER HT/PER
                          (F)     (DEG/KT/KT) (MB)    (FT/S) (FT/S)
28.5N   80.2W              80 81  260/  8/ 10 1015.0R
28.9N   78.5W              84 84  250/ 16/ 17 1014.1R
TRIDENT PIER               78                   N/A
28.4N   80.5W                 79                N/A     1/11
27.5N   80.2W                 76                N/A     1/11

$$
FLZ050-056-061-142-242-148-248-149-249-151-251-155-255-
160-260-300600-
WEST CENTRAL FLORIDA

CITY           SKY/WX    TMP DP  RH WIND       PRES   REMARKS
CRYSTAL RIVER  MOCLDY    73  73 100 CALM      29.99S FOG
INVERNESS      FAIR      72  72 100 CALM      30.00S FOG
BROOKSVILLE    PTCLDY    75  74  96 CALM      30.00S FOG
ZEPHYRHILLS    FAIR      70  70 100 CALM      30.00S FOG
CLEARWATER     CLOUDY    78  75  90 CALM      30.00R
TAMPA INTL     MOCLDY    79  74  84 CALM      30.00R
TAMPA EXEC     MOCLDY    79  75  89 CALM      30.00S
PLANT CITY     PTCLDY    79  77  94 CALM      30.02S
MACDILL AFB    MOCLDY    79  79 100 W2        30.00R
PETER O KNIGHT MOCLDY    81  77  89 CALM      30.00S
ST PETERSBURG  MOCLDY    81  73  76 NW7       29.98S
SARASOTA       PTCLDY    82  77  84 W8        29.99R
VENICE         FAIR      82  77  83 W9        30.01S

STATION/POSITION SKY/WX   TEMP    WIND        PRES    WAVE   SWELL
                          AIR SEA DIR/SP/G            HT/PER HT/PER
                          (F)     (DEG/KT/KT) (MB)    (FT/S) (FT/S)
CEDAR KEY                  82     260/  6/  8 1015.4F
28.5N   84.5W              80 85  320/  6/ 10 1014.7R   2/ 4   2/ 5
27.3N   84.2W                 84                N/A     2/ 4
CLEARWATER BEACH           82                   N/A
MIDDLE TAMPA BAY           82                   N/A
VENICE                     83 85  270/ 11/ 12 1015.5F

$$
FLZ066-069-070-075>078-162-262-165-265-300600-
SOUTHWEST FLORIDA AND KEYS

CITY           SKY/WX    TMP DP  RH WIND       PRES   REMARKS
PUNTA GORDA    PTCLDY    79  77  94 CALM      30.02S
FT MYERS       CLEAR     77  76  96 CALM      30.00F
SOUTHWEST INTL PTCLDY    78  76  93 CALM      30.01S
NAPLES         PTCLDY    84  76  76 W6        30.01S
MARCO ISLAND   CLEAR     81  72  74 W5        30.02R
MARATHON       CLOUDY    85  74  69 CALM      30.02S
KEY WEST NAS   CLOUDY    84  77  79 W6        30.02F
KEY WEST INTL  CLOUDY    85  77  77 W5        30.03F HX  95

STATION/POSITION SKY/WX   TEMP    WIND        PRES    WAVE   SWELL
                          AIR SEA DIR/SP/G            HT/PER HT/PER
                          (F)     (DEG/KT/KT) (MB)    (FT/S) (FT/S)
VENICE                     83 85  270/ 11/ 12 1015.5F
NAPLES           NOT AVBL
26.0N   85.6W              83 85  250/  8/ 10 1016.4F   1/ 8   2/ 8
DRY TORTUGAS               84     350/  3/  4 1017.0R
NW FL BAY                  86     310/  4/  6 1017.0
SAND KEY                   84     290/  5/  7 1016.9F
SOMBRERO KEY               86     250/  4/  5 1017.5F
LONG KEY                   86 90  250/  5/  6 1017.6R
MOLASSES REEF              86 87  290/  5/  6 1016.7F

$$
FLZ067-068-071>074-168-172>174-300600-
SOUTHEAST FLORIDA

CITY           SKY/WX    TMP DP  RH WIND       PRES   REMARKS
W PALM BEACH   CLOUDY    78  75  90 CALM      30.02F
FT LAUDER-EXEC CLOUDY    81  76  84 W6        30.01S
FT LAUDERDALE  CLOUDY    82  77  84 W6        30.01S
POMPANO BEACH  CLOUDY    82  75  79 W5        30.01S
PEMBROKE PINES CLOUDY    82  76  81 SW5       30.03S
OPA LOCKA      CLOUDY    82  77  84 W7        30.02S
MIAMI          MOCLDY    82  74  76 W7        30.02S
WEST KENDALL   MOCLDY    79  76  90 W3        30.03R
HOMESTEAD      MOCLDY    82  77  85 W1        30.03R

STATION/POSITION SKY/WX   TEMP    WIND        PRES    WAVE   SWELL
                          AIR SEA DIR/SP/G            HT/PER HT/PER
                          (F)     (DEG/KT/KT) (MB)    (FT/S) (FT/S)
PORT EVERGLADES            82     270/  5/  8 1016.4S
VIRGINIA KEY               84                   N/A
LAKE WORTH                 80                   N/A
SETTLEMENT POINT           81     220/ 15/ 17 1016.9F

$$



USA.gov is the U.S. government's official web portal to all federal, state and local government web resources and services.